Simultaneous Nadir Overpasses (SNOs) Predictions

Prediction of SNOs between LANDSAT-8 and NOAA-19 Satellite Orbit:

Table of predicted SNOs for the next 14.0 days since TLE Epoch: 9/29/2017
Index Date (LANDSAT-8) Time (LANDSAT-8) Lat,Lon (LANDSAT-8) SZA (LANDSAT-8 ) Date (NOAA-19) Time (NOAA-19) Lat,Lon (NOAA-19) SZA (NOAA-19 ) Distance(km) Time Diff (sec)
1 10/01/2017 02:24:36 -76.68, -25.70 99.84 10/01/2017 02:24:10 -76.67, -25.86 99.86 4.25 26
2 10/01/2017 03:14:03 76.62, 141.74 80.11 10/01/2017 03:15:05 76.62, 141.61 80.12 3.42 62
3 10/03/2017 07:58:20 76.68, 70.87 81.04 10/03/2017 07:57:50 76.65, 70.87 81.01 2.85 30
4 10/03/2017 08:47:49 -76.60,-121.75 99.04 10/03/2017 08:48:54 -76.60,-121.69 99.02 1.53 65
5 10/05/2017 13:32:06 -76.66, 167.37 98.12 10/05/2017 13:31:40 -76.68, 167.34 98.10 2.99 26
6 10/05/2017 14:21:32 76.64, -25.04 81.88 10/05/2017 14:22:35 76.62, -25.13 81.87 3.23 63
7 10/07/2017 19:05:49 76.69, -95.93 82.79 10/07/2017 19:05:21 76.70, -96.07 82.78 3.53 28
8 10/07/2017 19:55:18 -76.62, 71.46 97.29 10/07/2017 19:56:24 -76.63, 71.46 97.27 0.44 66
9 10/10/2017 00:39:35 -76.67, 0.56 96.39 10/10/2017 00:39:09 -76.68, 0.63 96.38 1.87 26
10 10/10/2017 01:29:01 76.65, 168.13 83.61 10/10/2017 01:30:05 76.63, 168.08 83.60 2.42 64
11 10/12/2017 06:13:18 76.70, 97.21 84.49 10/12/2017 06:12:50 76.68, 97.29 84.47 3.06 28




NCC Satellite Simultaneous Nadir Overpasses (SNOs) Prediction Service
